VLSK

Details ICAO VLSK (ZVK)
Name SAVANNAKHET
Region Laos
Timezone Asia/Vientiane (UTC+7.0)
Plans Departing 4
Arriving 5
Stats Elevation 509 ft / 155 m (AMSL)
Location 16.556594° 104.759531°
Runways 1
Magnetic Variation 0.946° W
Sunrise 2018-05-21 22:30:02 UTC / 2018-05-22 05:30:02 Local
Sunset 2018-05-22 11:28:02 UTC / 2018-05-22 18:28:02 Local
Advertisement - Login to hide

Runways

ID Width Length Bearing (true) Bearing (mag) Surface Threshold Offset Overrun Length
04 125 ft / 38 m 5,371 ft / 1,637 m 39.17° 40.12° Concrete 0 ft / 0 m 825 ft / 251 m
22 125 ft / 38 m 5,371 ft / 1,637 m 219.17° 220.12° Concrete 0 ft / 0 m 657 ft / 200 m

Map

Weather


0- 5 10 15 20 25 30 35+ Temperature / ° C

Clouds and Precipitation
Forecast for 2018-05-21 18:00 UTC. Updated 2 hours ago

Ground ~20,000 ft ~40,000 ft Winds

METAR

Not found

TAF

TAF VLSK 211700Z 2118/2218 22004KT 5000 TSRA SCT017 FEW027CB SCT050 BKN100

Frequencies

Tower 118.50 MHz TWR
Warning: Do not use this data for real-world aviation or navigation. No guarantee of current accuracy is given.